#timestamp,LO_Frequency,Hit,StdDev 
1642233615.4,286047005.3,N
1642233635.3,286047005.0,N
1642233655.1,286047007.1,Y
1642233675.9,286047004.3,P
1642233695.7,286047001.5,N
1642233715.5,286047002.0,N
1642233735.4,286047004.1,Y
1642233755.2,286047001.2,P
1642233775.0,286046999.3,N
1642233775.9,286046999.3,N
1642233795.8,286046997.8,N
1642233815.6,286046997.8,N
1642233835.5,286046997.9,N
1642233855.3,286046996.4,N
1642233875.1,286046995.4,N
1642233895.9,286046998.0,N
1642233915.7,286046996.8,N
1642233935.5,286046996.9,N
1642233955.4,286046997.5,N
1642233975.2,286046997.3,N
1642233995.1,286046996.6,N
1642233996.0,286046996.6,N
1642234015.8,286046997.7,N
1642234035.6,286046997.1,N
1642234055.5,286046997.2,N
1642234075.3,286046999.6,N
1642234095.1,286046997.8,N
1642234115.9,286046995.4,N
1642234135.7,286046997.9,N
1642234155.6,286046997.2,N
1642234175.4,286046995.8,N
1642234195.2,286046996.4,N
1642234215.1,286046997.9,N
1642234216.0,286046997.9,N
1642234235.8,286046994.9,Y
1642234255.7,286046998.3,P
1642234275.5,286047000.8,N
1642234295.3,286046998.6,N
1642234315.2,286046998.9,N
1642234335.0,286046996.9,N
1642234335.9,286046996.9,N
1642234355.8,286046995.0,Y
1642234375.6,286046999.2,P
1642234395.4,286046996.9,P
1642234415.3,286046996.6,P
1642234435.1,286046998.5,N
1642234455.9,286046998.6,N
1642234475.7,286046999.2,N
1642234495.5,286046996.5,Y
1642234515.4,286046999.8,P
1642234535.2,286047000.5,N
1642234555.0,286047000.0,N
1642234555.9,286047000.0,N
1642234575.8,286047002.8,Y
1642234595.6,286047004.2,P
1642234615.5,286047004.1,N
1642234635.3,286047001.7,N
1642234655.1,286047001.9,N
1642234675.9,286047002.6,N
1642234695.7,286047002.6,N
1642234715.6,286047002.8,N
1642234735.4,286047001.4,N
1642234755.2,286047003.9,N
1642234775.1,286047003.2,N
1642234776.0,286047003.2,N
1642234795.8,286047001.3,N
1642234815.7,286047003.3,N
1642234835.5,286047006.0,Y
1642234855.3,286047002.3,P
1642234875.2,286046998.3,P
1642234895.0,286047000.3,N
1642234895.9,286047000.3,N
1642234915.8,286047001.9,N
1642234935.6,286046999.8,N
1642234955.4,286047002.8,N
1642234975.3,286047000.5,N
1642234995.1,286047000.5,N
1642235015.9,286047002.8,N
1642235035.7,286047002.6,N
1642235055.5,286046999.9,N
1642235075.4,286046999.9,N
1642235095.2,286047000.2,N
1642235115.0,286047001.0,N
1642235115.9,286047001.0,N
1642235135.8,286047000.6,N
1642235155.6,286047002.7,N
1642235175.5,286047002.4,N
1642235195.3,286047001.0,N
1642235215.1,286047000.5,N
1642235235.9,286047000.1,N
1642235255.7,286047002.6,N
1642235275.5,286047001.0,N
1642235295.4,286047000.8,N
1642235315.2,286046999.0,N
1642235335.1,286047000.9,N
1642235336.0,286047000.9,N
1642235355.8,286047002.7,N
1642235375.7,286047000.1,N
1642235395.5,286047000.1,N
1642235415.3,286047000.4,N
1642235435.2,286046999.8,N
1642235455.0,286047000.6,N
1642235455.9,286047000.6,N
1642235475.7,286047002.6,N
1642235495.6,286047002.3,N
1642235515.4,286047000.6,N
1642235535.3,286046998.4,N
1642235555.1,286046997.0,N
1642235556.0,286046997.0,N
1642235575.8,286046999.0,N
1642235595.7,286046996.8,N
1642235615.5,286046999.5,N
1642235635.3,286047000.9,N
1642235655.2,286047000.2,N
1642235675.0,286046998.6,N
1642235675.9,286046998.6,N
1642235695.8,286047000.4,N
1642235715.6,286047002.5,N
1642235735.4,286047000.2,N
1642235755.3,286046998.9,N
1642235775.1,286046998.3,N
1642235795.9,286046999.9,N
1642235815.7,286047000.4,N
1642235835.5,286047000.8,N
1642235855.4,286046998.5,N
1642235875.2,286047000.4,N
1642235895.0,286047002.4,N
1642235895.9,286047002.4,N
1642235915.8,286047000.3,N
1642235935.6,286046999.1,N
1642235955.5,286046998.3,N
1642235975.3,286046999.6,N
1642235995.1,286046996.6,N
1642236015.9,286046996.9,N
1642236035.7,286046998.7,N
1642236055.5,286046999.4,N
1642236075.4,286046996.8,N
1642236095.2,286046999.5,N
1642236115.1,286046999.4,N
1642236116.0,286046999.4,N
1642236135.8,286046998.2,N
1642236155.6,286047002.7,N
1642236175.5,286047002.7,N
1642236195.3,286047000.6,N
1642236215.1,286047000.7,N
1642236235.9,286046999.3,N
1642236255.7,286046999.5,N
1642236275.6,286046999.1,N
1642236295.4,286046997.4,N
1642236315.2,286046996.7,N
1642236335.1,286046997.0,N
1642236336.0,286046997.0,N
1642236355.8,286046998.7,N
1642236375.6,286046998.3,N
1642236395.5,286047000.5,N
1642236415.3,286047000.7,N
1642236435.2,286046999.1,N
1642236455.9,286046998.1,N
1642236475.7,286047001.8,N
1642236495.6,286047002.4,N
1642236515.4,286046999.2,N
1642236535.2,286046997.7,N
1642236555.1,286046997.5,N
1642236556.0,286046997.5,N
1642236575.8,286046996.1,N
1642236595.7,286046996.9,N
1642236615.5,286046998.4,N
1642236635.3,286046999.5,N
1642236655.2,286046996.6,N
1642236675.0,286046998.3,N
1642236675.9,286046998.3,N
1642236695.8,286047000.2,N
1642236715.6,286047002.5,N
1642236735.4,286047002.1,N
1642236755.3,286047002.6,N
1642236775.1,286047002.3,N
1642236795.8,286047004.1,N
1642236815.7,286047002.4,N
1642236835.5,286047000.1,N
1642236855.4,286047000.6,N
1642236875.2,286047000.0,N
1642236895.0,286047001.5,N
1642236895.9,286047001.5,N
1642236915.8,286047002.2,N
1642236935.6,286047002.2,N
1642236955.4,286047002.6,N
1642236975.3,286047000.5,N
1642236995.1,286047000.5,N
1642237015.9,286047002.5,N
1642237035.7,286047002.8,N
1642237055.5,286047002.7,N
1642237075.4,286046999.8,N
1642237095.2,286047002.1,N
1642237115.0,286047002.7,N
1642237115.9,286047002.7,N
1642237135.8,286047001.9,N
1642237155.6,286047002.5,N
1642237175.5,286047002.7,N
1642237195.3,286047003.8,N
